Regional Weather Roundup
Issued by NWS Albany, NY

Home | Current Version | Previous Version | Graphics & Text | Print | Product List | Glossary On
Versions: 1 2 3 4 5 6 7 8 9 10 11 12 13 14 15 16 17 18 19 20 21 22 23 24 25 26 27
000
ASUS41 KALY 231310
RWRALY

NEW YORK STATE HOURLY WEATHER ROUNDUP
NATIONAL WEATHER SERVICE ALBANY NY
900 AM EDT THU OCT 23 2014

NOTE: "FAIR" INDICATES FEW OR NO CLOUDS BELOW 12,000 FEET WITH NO
SIGNIFICANT WEATHER AND/OR NO OBSTRUCTIONS TO VISIBILITY.

NYZ032-033-038>043-046>054-057>066-NYZ062>081-231400-
EAST


CITY           SKY/WX    TMP DP  RH WIND       PRES   REMARKS
ALBANY         LGT RAIN  46  43  89 N9        29.86F
GLENS FALLS    CLOUDY    47  42  83 N14       29.87F
POUGHKEEPSIE   LGT RAIN  49  44  83 N14G29    29.76R
MONTGOMERY     LGT RAIN  49  47  93 NE3       29.75S
WHITE PLAINS   CLOUDY    48  44  86 N21G30    29.67F
ISLIP          LGT RAIN  52  48  86 N16G23    29.62S
NEW YORK CITY  LGT RAIN  51  47  86 N16G30    29.70R
CENTRAL PARK   LGT RAIN  50  47  89 N8        29.73S FOG
$$

NYZ005>009-017-018-044>046-055-056-231400-
CENTRAL


CITY           SKY/WX    TMP DP  RH WIND       PRES   REMARKS
FULTON         CLOUDY    49  37  63 N17G30    30.01F
SYRACUSE       PTSUNNY   44  37  76 NW10      30.00S
ROME           CLOUDY    45  39  79 NW12      29.95S
ELMIRA         CLOUDY    49  42  77 N9G21     29.97F
BINGHAMTON     CLOUDY    42  39  89 N13G22    29.90S
MONTICELLO     CLOUDY    45  43  93 NW15      29.80S
$$

NYZ026>034-041>043-231400-
NORTH


CITY           SKY/WX    TMP DP  RH WIND       PRES   REMARKS
WATERTOWN      CLOUDY    47  33  58 N18       30.04F
FORT DRUM      NOT AVBL
MASSENA        PTSUNNY   46  34  62 NE17      30.08F
SARANAC LAKE   CLOUDY    39  35  86 N10       29.97F WCI  32
PLATTSBURGH    CLOUDY    44  38  79 N17       30.01F
$$

NYZ001>004-010>016-019>021-231400-
WEST


CITY           SKY/WX    TMP DP  RH WIND       PRES   REMARKS
NIAGARA FALLS  MOSUNNY   46  41  82 N10       30.14F
BUFFALO        MOSUNNY   45  41  86 NW9       30.13F
DUNKIRK        SUNNY     49  40  71 N12       30.15S
JAMESTOWN      CLOUDY    43  39  87 N9        30.12F
WELLSVILLE     CLOUDY    41  38  89 N12G22    30.05S
ROCHESTER      PTSUNNY   49  38  65 N12G18    30.09F
PENN YAN       CLOUDY    47  40  76 N8G17     30.03S
$$

             KEY
       WCI = WIND CHILL INDEX
       VSB = VISIBILITY
       HX  = HEAT INDEX
$$



USA.gov is the U.S. government's official web portal to all federal, state and local government web resources and services.